Theta_e
342 350 354 346 343 343 347 346 344 344 347 348 351 353 356 354 354 347 344 347 349 349 348 348 350 351 351 351 344 345 345 345 339 341 345 343 342 351 352 352 353 351 353 353 353 353 352 349 347
344 353 347 345 345 344 344 346 347 344 348 347 349 352 355 358 346 345 348 347 347 349 348 348 350 351 350 350 349 347 349 349 340 338 341 339 343 348 351 352 352 353 352 353 352 351 349 349 349
349 349 345 348 349 346 347 348 347 345 346 346 351 350 353 351 345 345 347 347 348 348 347 347 350 347 348 349 347 348 349 349 347 346 345 344 346 347 352 351 351 351 351 352 351 349 350 350 351
352 342 340 347 351 349 348 345 345 344 346 348 351 354 350 346 346 347 348 347 348 348 346 345 347 352 351 346 347 351 349 349 348 344 349 343 347 353 353 352 352 351 350 347 351 351 350 349 350
343 340 346 347 350 349 347 344 347 345 351 353 350 354 352 347 347 348 348 347 344 346 347 347 347 344 343 346 350 350 350 349 347 343 345 346 345 350 350 352 352 351 350 348 350 351 350 349 346
345 342 347 348 348 348 345 343 346 349 351 350 352 350 350 346 346 347 347 345 343 344 346 347 349 348 343 348 350 349 349 351 346 343 338 341 341 347 345 345 345 346 350 349 349 350 350 344 343
348 350 354 353 353 351 346 343 344 348 350 352 348 353 348 344 344 346 345 344 343 342 346 346 346 351 339 340 345 343 342 335 340 339 338 337 338 341 344 345 344 346 345 349 348 347 345 342 342
346 350 355 353 350 348 343 344 340 346 348 346 346 353 351 345 343 344 345 345 345 345 345 344 344 347 341 338 335 336 333 344 335 341 348 337 347 346 343 344 343 341 345 346 346 343 342 341 340
346 352 357 356 353 344 342 344 339 339 348 348 346 347 345 344 342 344 347 348 348 347 346 346 345 345 341 340 339 342 344 349 350 349 348 346 346 344 347 343 342 341 345 346 346 346 340 338 338
346 351 349 350 347 339 343 342 339 346 348 349 349 346 345 343 346 346 347 349 348 349 349 348 350 349 351 348 349 348 353 352 351 350 351 347 346 346 344 341 344 343 344 344 346 347 342 338 334
346 346 340 338 338 337 341 340 344 347 349 348 351 348 345 347 347 346 346 347 346 349 350 350 352 350 351 350 353 349 352 352 352 349 351 347 343 344 346 344 344 348 349 345 345 344 343 336 335
335 335 340 328 325 331 339 338 345 346 345 344 347 346 346 348 347 347 346 346 346 348 346 347 350 351 349 347 349 348 348 350 349 347 348 350 347 346 346 342 344 345 347 347 344 344 341 334 332
324 325 326 324 323 323 338 342 345 346 343 345 346 347 348 348 348 348 347 346 346 347 346 347 348 348 348 347 345 346 346 348 347 347 349 349 349 346 343 344 345 347 347 346 343 344 342 339 334
323 323 322 324 326 326 339 341 345 345 345 345 347 348 348 348 348 348 348 346 345 345 345 346 347 348 347 346 345 348 347 347 348 348 347 348 347 345 343 348 349 348 350 347 344 343 344 344 343
322 324 324 327 326 324 328 338 341 343 345 346 347 347 347 346 347 347 346 346 345 343 342 344 345 346 347 346 343 344 346 344 345 345 343 344 346 344 345 349 349 348 349 347 345 344 345 347 347
324 322 327 327 324 322 324 326 346 343 345 347 348 347 347 345 345 346 346 344 345 344 344 344 344 343 343 341 341 341 340 341 342 343 343 341 345 347 347 348 349 348 349 347 348 348 348 348 347
319 325 327 327 324 323 323 323 345 342 345 346 346 347 346 345 344 344 345 345 343 342 343 343 342 341 340 340 341 344 344 341 341 342 342 344 345 346 347 348 349 348 348 349 348 347 348 347 347
326 324 324 328 324 324 323 325 344 342 344 345 344 344 345 345 345 344 344 345 344 341 339 339 340 340 340 341 344 346 348 348 346 344 343 344 345 346 347 348 347 348 348 348 347 347 346 345 345
326 325 323 325 324 322 323 328 346 343 342 343 343 343 343 341 340 343 344 345 346 345 341 339 340 341 342 343 345 346 347 348 349 349 348 349 349 349 349 349 349 347 348 346 346 346 345 343 345
325 326 324 323 323 323 328 330 334 342 343 342 342 342 342 340 338 339 340 344 346 347 346 346 346 346 346 342 343 347 347 347 349 350 350 350 349 348 348 348 349 350 348 347 346 347 345 344 344
326 324 326 325 323 322 329 332 331 345 343 342 340 340 340 340 339 340 342 342 343 346 347 347 347 348 349 349 348 349 349 349 351 352 352 350 348 348 349 349 349 349 350 348 347 347 348 345 345
327 326 326 325 323 324 324 334 327 339 350 349 342 340 340 339 340 340 344 343 342 342 345 346 347 347 348 349 350 350 349 348 348 351 350 348 348 348 348 349 349 349 350 350 349 348 347 347 347
326 324 325 325 322 322 323 327 331 343 353 354 349 343 341 340 343 343 346 344 342 342 343 344 346 348 348 349 350 351 351 349 348 350 351 351 351 350 350 350 349 349 349 349 349 348 349 348 347
323 323 321 320 319 325 325 323 326 343 350 353 353 352 350 348 346 346 347 346 344 343 343 343 345 348 350 351 351 352 352 352 352 351 351 352 353 353 353 353 353 352 352 351 350 350 349 348 348
321 320 323 326 327 328 324 327 327 329 344 353 355 353 351 351 350 350 350 349 347 345 346 346 346 347 348 349 351 351 351 351 351 352 353 354 355 356 355 353 353 353 353 353 352 350 349 348 348
323 322 323 329 327 326 324 337 334 332 334 350 352 351 347 349 349 350 350 351 351 350 350 349 348 348 349 350 350 350 352 352 353 354 354 355 355 351 347 349 350 350 351 352 352 352 351 348 347
324 323 320 320 317 322 321 331 335 335 342 349 346 348 348 347 347 349 350 352 352 352 352 352 352 351 349 352 353 353 353 354 352 349 350 352 351 350 349 350 350 348 350 351 351 351 350 349 348
323 319 322 318 327 328 324 331 335 339 340 346 344 347 346 343 343 344 345 346 349 351 352 354 355 354 352 350 347 346 346 345 346 347 348 348 349 347 345 346 346 347 348 347 348 350 350 349 348
323 323 318 317 318 323 327 330 328 333 335 341 343 345 344 342 342 341 339 341 343 344 345 344 343 344 343 341 339 338 339 339 340 341 342 340 339 336 334 333 334 336 341 344 346 347 347 349 349
323 322 321 325 327 320 321 325 323 324 330 335 337 340 338 338 338 337 337 338 339 340 340 339 338 338 337 337 336 334 333 333 336 337 338 337 336 333 333 336 337 338 340 345 347 346 345 348 348
Wind_Speed
5 6 4 1 4 5 2 5 3 3 4 4 3 5 7 10 2 2 11 12 20 19 19 23 25 26 25 26 29 28 30 29 30 27 24 22 21 21 19 18 16 17 16 15 15 16 15 15 18
8 8 1 1 5 3 4 4 5 4 6 7 8 5 4 4 5 9 7 19 21 20 21 22 27 27 25 25 28 30 28 27 28 28 25 23 19 21 20 18 16 15 16 15 14 14 14 15 17
4 5 2 4 3 2 1 2 4 3 3 1 4 5 3 3 8 6 12 22 22 22 23 23 26 26 25 25 26 27 26 24 23 22 22 22 19 19 18 17 16 15 15 14 12 12 13 14 15
2 2 4 4 3 2 2 2 4 2 5 7 5 6 5 10 8 9 24 22 24 23 22 23 25 25 24 25 26 25 25 24 22 20 19 19 17 14 14 14 13 14 13 13 11 13 13 13 13
2 2 4 3 3 4 3 3 4 6 4 7 3 4 5 4 13 26 24 24 25 21 19 23 25 25 24 23 24 24 24 23 22 21 18 17 14 11 12 12 10 12 12 12 11 10 10 10 10
2 2 5 3 4 5 0 6 3 5 5 4 7 4 3 15 25 23 23 23 21 21 20 23 24 24 25 23 22 22 22 21 20 19 18 13 10 9 8 8 9 10 10 11 11 11 10 9 9
5 4 0 1 3 4 2 6 5 5 3 3 5 4 3 6 22 24 22 23 23 21 20 20 23 23 24 22 19 18 19 20 19 18 16 13 9 8 7 6 7 6 8 9 9 9 9 9 7
3 3 4 3 1 3 5 3 8 7 3 4 8 6 6 10 23 24 23 22 22 20 20 20 22 24 26 24 23 18 13 18 18 16 14 13 9 7 6 6 5 5 6 6 6 7 9 9 6
1 4 1 4 1 4 3 4 3 5 7 3 4 5 13 26 24 23 22 19 19 18 21 23 23 24 24 26 23 20 17 16 15 15 13 10 9 7 6 5 4 3 4 3 4 4 7 9 8
4 3 5 6 3 4 5 5 9 5 7 3 8 16 26 27 24 21 19 18 20 18 18 20 21 23 23 23 21 21 18 16 15 13 13 12 9 9 7 6 6 4 4 3 3 4 6 8 9
3 4 2 4 9 5 5 3 3 9 4 6 14 18 21 24 20 19 19 22 28 21 21 21 19 20 21 22 20 18 18 17 17 15 15 13 12 11 11 9 8 8 6 6 5 6 7 8 9
1 9 5 6 3 7 8 9 6 8 3 13 18 21 20 17 18 19 19 20 22 24 24 23 20 20 21 21 22 20 19 17 17 17 16 15 14 13 13 12 10 10 9 9 8 8 8 8 10
5 4 2 9 7 5 11 9 5 8 7 19 17 19 16 14 18 18 20 22 24 25 26 24 22 21 21 20 20 20 19 18 17 17 16 15 15 14 15 14 13 12 12 10 10 11 9 9 10
3 5 7 7 3 7 7 4 6 5 16 20 18 17 15 13 18 15 16 20 27 27 29 26 25 24 22 22 21 20 20 19 18 17 17 16 16 16 17 16 16 16 16 12 12 12 10 8 9
3 7 7 1 1 3 9 4 3 10 16 18 14 15 15 15 19 18 21 23 30 32 31 30 29 26 25 23 22 22 21 20 18 17 17 17 17 17 17 18 15 18 16 13 12 13 12 13 11
5 5 3 3 4 3 4 5 2 14 20 16 14 14 14 13 18 19 20 23 26 28 32 31 31 29 27 26 23 22 21 20 20 19 18 18 19 19 19 20 20 18 17 15 16 16 16 16 16
6 0 1 6 1 4 4 5 6 8 13 15 14 14 13 10 13 19 23 25 26 30 30 31 30 32 30 27 26 23 22 23 22 21 20 20 20 19 21 22 22 19 19 19 19 19 17 18 18
2 2 1 3 1 3 3 2 8 8 12 15 13 11 12 13 17 22 24 27 28 28 29 30 30 30 29 27 25 23 22 23 23 22 22 22 22 23 23 24 24 22 20 20 21 21 22 21 21
2 2 0 3 2 6 2 2 5 7 7 8 9 10 11 14 13 21 25 26 28 27 28 29 30 30 28 27 25 25 27 26 25 24 22 22 22 22 24 27 27 26 24 23 21 22 23 24 22
2 1 3 3 5 6 3 5 4 6 7 11 13 12 13 7 9 15 25 30 30 31 30 30 29 29 27 28 28 24 20 25 28 27 26 24 21 22 22 23 26 26 28 27 25 24 23 23 22
1 4 3 3 3 7 7 5 3 2 3 4 8 7 6 11 10 8 17 26 29 31 32 30 30 30 28 28 28 25 24 21 22 22 26 27 26 24 22 22 23 25 28 30 29 27 27 24 25
3 2 1 6 4 4 3 4 5 2 4 6 10 9 10 8 7 6 11 19 27 31 30 31 29 29 29 28 29 31 31 24 30 28 25 24 24 26 25 25 25 26 28 30 31 33 32 28 23
3 3 3 2 4 4 3 4 6 2 6 8 9 11 9 9 10 9 15 25 28 26 27 28 28 27 29 28 28 29 29 31 31 28 25 25 23 22 23 24 26 28 31 32 33 33 35 36 30
6 5 7 5 3 2 2 5 5 6 12 5 3 6 8 9 9 8 15 19 25 24 24 26 28 26 24 23 23 25 28 29 29 30 28 29 26 25 25 26 29 30 32 32 33 33 33 35 37
6 7 3 4 5 5 0 3 7 5 3 9 11 8 7 8 8 8 8 16 21 25 23 21 22 23 20 20 22 24 27 28 28 29 30 30 30 29 29 24 23 25 27 28 30 32 33 33 34
3 6 5 2 2 4 3 3 4 7 6 9 7 7 7 7 7 8 11 19 22 23 22 20 19 21 18 18 21 24 25 26 29 30 29 30 27 22 20 21 22 23 23 24 26 28 28 26 20
4 4 4 7 3 3 4 6 3 5 4 10 7 7 7 7 6 8 10 18 20 19 18 18 17 18 20 20 21 22 23 24 24 25 26 26 26 24 26 25 24 23 22 23 24 26 25 25 26
5 6 4 3 2 3 5 5 5 2 4 6 8 9 9 5 5 5 9 13 15 16 15 15 15 15 13 12 13 16 18 20 24 26 27 27 28 26 24 25 26 26 26 24 25 25 24 24 28
2 2 7 5 4 5 1 6 6 7 9 13 12 13 10 9 8 8 8 11 12 11 12 11 10 7 3 4 7 13 15 17 20 22 23 21 22 23 26 29 31 31 32 31 26 24 23 23 26
1 4 5 5 4 1 3 6 2 6 8 7 7 6 6 7 8 6 9 10 11 12 12 9 6 4 2 7 12 16 19 20 23 26 28 27 28 31 31 28 29 31 30 29 28 28 26 26 27
Wind_Direction
175 167 197 145 56 64 347 336 314 23 47 352 41 103 107 38 41 175 139 145 140 140 140 138 132 128 128 126 135 131 131 129 131 123 123 120 113 108 106 104 101 105 106 107 111 111 113 115 113
159 143 224 42 76 64 309 339 6 89 139 136 91 105 60 67 65 118 110 148 143 136 136 139 133 128 130 128 130 132 129 131 135 127 124 122 116 111 106 103 99 101 105 106 109 108 115 119 117
136 195 71 76 97 129 214 13 349 79 92 67 106 52 57 74 102 125 148 149 143 133 133 131 130 130 130 134 135 132 133 134 133 128 119 121 122 115 108 105 105 100 104 104 106 115 120 126 125
200 46 30 74 328 267 195 6 10 33 40 62 103 64 66 132 137 150 146 148 142 133 133 130 127 128 132 133 133 133 136 137 139 140 124 123 125 121 111 107 104 104 105 116 115 119 121 125 129
58 53 48 71 299 271 231 114 48 34 58 14 60 75 101 40 124 139 146 151 141 133 135 135 129 125 126 128 130 135 136 142 146 151 142 132 129 126 118 113 114 105 107 119 126 126 131 137 134
38 84 49 7 315 288 309 117 84 64 69 105 82 90 54 134 130 145 148 155 153 145 139 138 136 133 131 128 133 134 143 142 155 160 162 153 144 137 123 120 114 115 120 122 135 142 146 148 144
86 63 122 193 279 320 245 124 98 105 127 83 123 78 92 143 141 149 153 150 146 146 144 141 140 137 136 133 133 139 148 156 163 174 178 178 169 149 138 128 122 122 123 127 137 155 157 161 159
94 90 7 172 213 291 180 98 127 122 81 81 145 152 174 170 146 151 155 154 151 150 155 153 151 144 146 142 140 141 164 175 178 176 170 172 172 164 149 151 147 139 133 132 140 166 177 178 185
52 65 290 283 143 279 170 115 131 129 128 180 148 132 136 147 145 147 152 159 160 159 162 162 159 160 154 155 157 162 174 180 174 171 174 185 182 178 178 176 174 172 162 152 161 173 195 197 200
82 100 230 204 264 186 228 132 142 136 151 58 84 106 131 147 147 148 157 163 175 169 161 170 166 167 169 168 169 175 175 179 183 185 188 196 192 195 206 211 218 209 224 211 196 207 210 209 211
143 214 242 269 250 142 162 115 144 124 190 184 156 148 149 153 160 162 171 175 180 176 174 178 176 179 176 181 178 183 183 189 189 196 203 210 212 213 224 223 231 233 231 235 226 222 220 218 221
192 249 242 281 26 133 167 140 162 179 209 150 155 149 153 162 169 174 173 177 181 185 184 183 184 185 184 186 186 192 196 199 202 207 213 219 219 224 236 244 245 244 238 249 243 228 228 223 225
186 272 249 267 263 143 146 182 187 199 103 128 137 146 161 172 177 184 181 180 187 190 193 192 190 192 193 195 198 200 203 210 214 216 223 228 234 236 243 250 248 247 246 245 252 250 240 240 233
208 259 264 252 105 135 144 128 121 124 122 132 145 155 169 179 186 178 180 181 192 196 199 197 197 199 199 203 207 209 211 217 223 226 230 234 239 246 252 257 262 261 260 263 260 258 254 252 257
322 342 343 307 93 136 114 98 245 130 134 138 155 163 176 188 186 191 188 191 196 201 203 203 202 204 206 210 214 219 221 224 231 237 238 243 249 253 255 266 269 266 261 258 257 257 262 270 272
25 48 24 312 137 119 103 229 107 146 142 145 163 177 185 189 193 195 198 203 204 202 206 207 205 207 210 214 219 224 229 232 236 239 240 245 249 253 256 257 261 264 255 256 261 262 268 271 277
6 236 180 325 285 121 85 245 134 149 149 153 173 185 187 188 198 201 204 208 210 209 209 211 211 214 214 218 221 226 233 237 240 240 240 241 244 246 255 257 262 265 261 262 265 267 267 275 280
307 360 262 253 198 80 108 166 136 160 161 171 179 181 185 193 204 201 203 213 215 214 215 217 218 222 222 225 230 233 238 240 243 246 249 252 254 255 254 258 262 263 263 262 263 265 266 270 275
231 291 91 272 67 89 185 97 154 165 148 169 187 194 197 205 184 196 206 210 217 218 216 222 221 224 224 224 229 237 239 242 244 245 247 254 257 256 257 257 260 261 260 263 264 265 264 266 270
168 145 289 283 26 97 93 56 124 186 205 194 188 198 206 185 175 173 195 208 215 220 219 220 227 230 228 229 232 233 242 248 251 252 251 255 256 252 252 252 256 262 262 262 262 260 256 257 261
111 176 157 143 56 45 99 3 4 138 207 190 222 215 220 202 195 177 177 194 209 220 225 226 227 231 232 235 235 239 243 251 255 259 250 249 252 251 252 255 256 259 262 261 262 261 253 250 254
186 213 96 111 92 169 51 233 276 204 239 203 212 206 212 199 177 174 162 191 209 220 222 229 234 235 238 238 235 239 243 243 255 262 267 264 254 255 254 257 259 259 259 258 260 261 259 252 243
178 103 61 56 91 101 4 92 253 179 233 221 213 205 202 192 179 177 181 206 217 222 224 228 230 232 234 235 238 239 245 255 261 262 268 273 271 263 265 262 260 262 260 259 262 259 256 254 247
128 78 48 57 87 55 223 140 276 192 210 158 185 182 174 167 173 176 196 209 218 221 225 228 231 237 238 239 241 243 249 258 264 270 276 282 284 281 276 274 271 269 268 268 268 270 264 257 254
72 57 5 5 12 209 238 86 243 289 216 174 172 174 168 164 161 163 164 191 211 216 222 224 229 238 241 245 246 253 258 264 269 277 282 284 286 289 292 292 286 281 280 278 277 273 269 260 250
69 134 143 196 231 268 313 244 249 279 195 133 160 152 142 166 174 167 181 192 206 213 218 221 232 246 245 246 253 258 266 271 275 278 279 281 283 284 292 290 289 288 286 285 282 276 276 267 252
177 70 148 104 26 31 291 296 311 18 131 139 141 151 172 184 170 178 190 198 207 211 217 223 230 241 248 254 257 264 275 282 283 288 287 286 288 288 294 293 287 283 279 279 279 277 273 270 253
119 148 77 17 136 276 304 283 243 153 223 164 161 177 195 179 173 185 196 191 203 209 215 220 226 233 245 258 273 279 282 283 284 284 282 283 285 291 295 294 291 288 282 277 274 270 271 265 265
90 85 55 109 109 160 247 273 216 213 196 191 192 192 181 181 185 191 181 178 181 182 185 197 214 220 232 273 286 280 282 287 287 286 286 288 289 293 295 293 291 288 283 277 266 261 261 257 259
122 133 131 122 222 123 152 271 281 256 219 203 210 184 175 180 190 183 166 157 152 152 153 150 166 180 275 270 269 279 291 295 291 290 289 289 291 298 302 298 291 289 284 277 267 264 260 252 249